Flag for Germany Weather past 2 weeks in Kaufbeuren, Bavaria, Germany

Now
45 °F

Quite cool.


Feels Like: 34 °F
Forecast: 41 / 46 °F
Wind: 32 mph from West

Location: Altenstadt Airport

Current Time: Mar 29, 2015 at 7:04:29 PM

Latest Report: Mar 29, 2015 at 6:20 PM


Visibility: N/A

Pressure: 29.74 "Hg

Humidity: 87%

Dew point: 41 °F

Location of KaufbeurenLocation

Historic Weather in Kaufbeuren — Graph

°F

Kaufbeuren temperature yesterday

Maximum temperature yesterday: 52 °F (at 3:20 PM)
Minimum temperature yesterday: 34 °F (at 3:20 AM)
Average temperature yesterday: 42 °F

Past Weeks' High & Low Weather Summary

 TemperatureHumidityPressure
High61 °F (Mar 17, 12:20 PM)100% (Mar 15, 7:20 AM)30.24 "Hg (Mar 15, 7:20 AM)
Low28 °F (Mar 20, 5:20 AM)27% (Mar 17, 12:20 PM)29.53 "Hg (Mar 25, 2:20 PM)
Average41 °F76%30.01 "Hg
* Reported Mar 14 4:20 PM — Mar 29 5:20 PM, Kaufbeuren, Weather by CustomWeather, © 2015

Note: Actual official high and low records may vary slightly from our data, if they occured in-between our weather recording intervals... More about our weather records

Advertising

Kaufbeuren weather history for previous 24 hours

 ConditionsComfort  
Time TempWeatherWind HumidityBarometerVisibility
5:20 PM
Sun, Mar 29
45 °FQuite cool.33 mph87%29.74 "HgN/A
4:20 PM45 °FQuite cool.31 mph87%29.77 "HgN/A
3:20 PM46 °FCool.32 mph87%29.77 "HgN/A
2:20 PM52 °FCool.31 mph62%29.80 "HgN/A
1:20 PM52 °FCool.33 mph58%29.80 "HgN/A
12:20 PM52 °FCool.35 mph62%29.83 "HgN/A
11:20 AM48 °FCool.33 mph71%29.86 "HgN/A
10:20 AM48 °FCool.29 mph71%29.89 "HgN/A
9:20 AM48 °FCool.23 mph71%29.89 "HgN/A
8:20 AM46 °FCool.24 mph76%29.92 "HgN/A
7:20 AM46 °FCool.22 mph76%29.95 "HgN/A
6:20 AM45 °FQuite cool.18 mph81%29.95 "HgN/A
5:20 AM45 °FQuite cool.18 mph87%29.98 "HgN/A
4:20 AM45 °FQuite cool.20 mph87%29.98 "HgN/A
3:20 AM43 °FQuite cool.18 mph93%30.01 "HgN/A
1:20 AM43 °FQuite cool.21 mph93%30.01 "HgN/A
12:20 AM43 °FQuite cool.23 mph87%30.01 "HgN/A
11:20 PM
Sat, Mar 28
41 °FQuite cool.24 mph93%30.04 "HgN/A
10:20 PM41 °FQuite cool.14 mph87%30.04 "HgN/A
9:20 PM41 °FQuite cool.20 mph87%30.04 "HgN/A
8:20 PM46 °FCool.17 mph57%30.04 "HgN/A
7:20 PM46 °FCool.9 mph57%30.04 "HgN/A
Weather by CustomWeather, © 2015

See weather overviewHow to use our weather pages